index,update,raceTime,cpIndex,wp_frac,percentComplete,value_m,avgspeed_mph,crossTrack_ft,status,checkpoint,checkpointTime,nextCheckPoint,nextCheckpointTime,rptTime,rptTimeDelta_s, rptLat_deg, rptLon_deg, rptSpeed_mph, atCp,nextCpIndex,wpIndex,pose_lat_deg,pose_lon_deg,selspeed_mph,maxspeed_mph,routeDistance_mile,distance_mile,distanceFromStart_mile,maxDistanceFromStart_mile,maxTotalDistanceFromStart_mile,errors,file
0,False,'00:00:00,0,0.0832048608703135,0,407.52826204913,-2.23693578365991E-12,3.53005860172739,DNS,KawPoint_DNS,5/21/2022 9:07:00 AM,RiverFrontPark,12/31/1969 6:00:00 PM,5/21/2022 9:07:00 AM,0,39.114957736687,-94.6097168695,0,True,1,7,39.114957736687,-94.6097168695,-2.23693578365991E-12,-2.23693578365991E-12,0,0,0,0,0,,9791
2,False,'00:00:00,0,0.0832048608703135,0,407.52826204913,-2.23693578365991E-12,3.53005860172739,DNS,KawPoint_DNS,5/21/2022 9:07:00 AM,RiverFrontPark,12/31/1969 6:00:00 PM,5/21/2022 8:18:25 AM,-2915,39.1166,-94.6119,0.0356752254919037,True,1,7,39.114957736687,-94.6097168695,-2.23693578365991E-12,-2.23693578365991E-12,0,0,0,0,0,old Position(2),9791
4,False,'00:00:00,0,0.0832048608703135,0,407.52826204913,-2.23693578365991E-12,3.53005860172739,DNS,KawPoint_DNS,5/21/2022 9:07:00 AM,RiverFrontPark,12/31/1969 6:00:00 PM,5/21/2022 8:39:26 AM,-1654,39.1165,-94.6121,0.0269051037710575,True,1,7,39.114957736687,-94.6097168695,-2.23693578365991E-12,-2.23693578365991E-12,0,0,0,0,0,old Position(2),9791
6,False,'00:00:00,0,0.0832048608703135,0,407.52826204913,-2.23693578365991E-12,3.53005860172739,DNS,KawPoint_DNS,5/21/2022 9:07:00 AM,RiverFrontPark,12/31/1969 6:00:00 PM,5/21/2022 8:45:26 AM,-1294,39.1161,-94.6131,0.175121274261542,True,1,7,39.114957736687,-94.6097168695,-2.23693578365991E-12,-2.23693578365991E-12,0,0,0,0,0,old Position(2),9791
8,False,'00:00:00,0,0.0832048608703135,0,407.52826204913,-2.23693578365991E-12,3.53005860172739,DNS,KawPoint_DNS,5/21/2022 9:07:00 AM,RiverFrontPark,12/31/1969 6:00:00 PM,5/21/2022 8:51:26 AM,-934,39.116,-94.6118,1.19186556247216,True,1,7,39.114957736687,-94.6097168695,-2.23693578365991E-12,-2.23693578365991E-12,0,0,0,0,0,old Position(2),9791
10,False,'00:00:00,0,0.0832048608703135,0,407.52826204913,-2.23693578365991E-12,3.53005860172739,DNS,KawPoint_DNS,5/21/2022 9:07:00 AM,RiverFrontPark,12/31/1969 6:00:00 PM,5/21/2022 8:57:33 AM,-567,39.1159,-94.6117,0.181249064677883,True,1,7,39.114957736687,-94.6097168695,-2.23693578365991E-12,-2.23693578365991E-12,0,0,0,0,0,old Position(2),9791
12,False,'00:00:00,0,0.0832048608703135,0,407.52826204913,-2.23693578365991E-12,3.53005860172739,DNS,KawPoint_DNS,5/21/2022 9:07:00 AM,RiverFrontPark,12/31/1969 6:00:00 PM,5/21/2022 9:03:33 AM,-207,39.1152,-94.6121,0.988244701587928,True,1,7,39.114957736687,-94.6097168695,-2.23693578365991E-12,-2.23693578365991E-12,0,0,0,0,0,old Position(2),9791
14,False,'00:00:00,0,0.0832048608703135,0,407.52826204913,-2.23693578365991E-12,3.53005860172739,DNS,KawPoint_DNS,5/21/2022 9:07:00 AM,RiverFrontPark,12/31/1969 6:00:00 PM,5/21/2022 9:07:00 AM,0,39.115,-94.6097,17.558629233207,True,1,7,39.114957736687,-94.6097168695,-2.23693578365991E-12,-2.23693578365991E-12,0,0,0,0,0,old Position(2);Too fast(1),9791
16,False,'00:05:35,0.134767535755606,0.364045621317287,1.15807604364027,1359.71612536085,8.76260094867931,50.6926477623923,OUT,KawPoint_OUT,5/21/2022 9:07:00 AM,RiverFrontPark,5/21/2022 9:38:35 AM,5/21/2022 9:12:35 AM,335,39.1097,-94.6011,8.75136692287492,False,1,14,39.1097,-94.6011,8.76260094867931,8.76260094867931,0.591662107859924,0.589732888785581,0,0,0,,9791
18,False,'00:11:36,0.318872541653928,0.345203282418423,2.74011578080471,2660.49343206487,8.703617422244,50.5084889658611,OUT,KawPoint_OUT,5/21/2022 9:07:00 AM,RiverFrontPark,5/21/2022 9:39:12 AM,5/21/2022 9:18:36 AM,696,39.1125,-94.587,8.11869262168675,False,1,24,39.1125,-94.587,8.107539855747,8.76260094867931,1.39992765376187,1.39217757205759,0,0,0,,9791
20,False,'00:17:36,0.50497014730843,0.537425707083257,4.33927820281499,3975.34927254658,8.65838208858313,78.0623468383746,OUT,KawPoint_OUT,5/21/2022 9:07:00 AM,RiverFrontPark,5/21/2022 9:39:39 AM,5/21/2022 9:24:36 AM,1056,39.1182,-94.5737,7.89954881708412,False,1,37,39.1182,-94.5737,7.90443737237051,8.76260094867931,2.21694119498221,2.20765816548656,0,0,0,,9791
22,False,'00:23:36,0.676481149585404,0.113468846165969,5.81309592786332,5187.14478306715,8.56362568595797,92.3281367572247,OUT,KawPoint_OUT,5/21/2022 9:07:00 AM,RiverFrontPark,5/21/2022 9:40:33 AM,5/21/2022 9:30:36 AM,1416,39.1234,-94.5614,7.48278041184645,False,1,46,39.1234,-94.5614,7.48117473188251,8.76260094867931,2.96991601610222,2.95937914392666,0,0,0,,9791
24,False,'00:29:36,0.851681835691156,0.749347165951246,7.3186196155291,6425.00942174622,8.4902236755594,31.082253183521,OUT,KawPoint_OUT,5/21/2022 9:07:00 AM,RiverFrontPark,5/21/2022 9:41:12 AM,5/21/2022 9:36:36 AM,1776,39.1298,-94.5497,7.55560312739123,False,1,53,39.1298,-94.5497,7.54487052614387,8.76260094867931,3.73908944246668,3.72886542635682,0,0,0,,9791
26,True,'00:35:36,1.00694263532142,0.948836164777086,8.73528896350057,7589.81666119481,8.38548309440472,65.5693923714445,OUT,RiverFrontPark_OUT,5/21/2022 9:41:43 AM,Labenite,5/21/2022 10:56:55 AM,5/21/2022 9:42:36 AM,2136,39.1386,-94.5425,7.4227279914663,True,2,60,39.1386,-94.5425,7.40750428811135,8.76260094867931,4.46286710556952,4.45370017518625,0,0,0,,9791
28,False,'00:41:40,1.08170551514092,0.791727089053531,10.266063492393,8848.44292834074,8.3306408711045,-0.347217559958739,OUT,RiverFrontPark_OUT,5/21/2022 9:41:43 AM,Labenite,5/21/2022 10:57:51 AM,5/21/2022 9:48:40 AM,2500,39.1469,-94.5335,7.72416639249905,False,2,71,39.1469,-94.5335,7.91384790081502,8.76260094867931,5.24494120976722,5.22185655517241,0,0,0,,9791
30,False,'00:47:40,1.15602148941966,0.546304327289738,11.787687603053,10099.5455814434,8.28367848931846,-20.4075275531509,OUT,RiverFrontPark_OUT,5/21/2022 9:41:43 AM,Labenite,5/21/2022 10:58:36 AM,5/21/2022 9:54:40 AM,2860,39.1507,-94.5199,7.62412111655133,False,2,80,39.1507,-94.5199,7.62598510114467,8.76260094867931,6.02234035693688,5.9973675223465,0,0,0,,9791
32,False,'00:53:41,1.22927930952819,0.257661122563614,13.2876459424731,11332.8343055409,8.22957657241602,7.57637260004949,OUT,RiverFrontPark_OUT,5/21/2022 9:41:43 AM,Labenite,5/21/2022 10:59:27 AM,5/21/2022 10:00:41 AM,3221,39.1522,-94.5058,7.56128542268716,False,2,92,39.1522,-94.5058,7.56625921361192,8.76260094867931,6.78867044180223,6.76152118298792,0,0,0,,9791
34,False,'00:59:42,1.30665636593291,0.365936353228477,14.8719458965545,12635.4699972176,8.21671989461107,81.4304575664814,OUT,RiverFrontPark_OUT,5/21/2022 9:41:43 AM,Labenite,5/21/2022 10:59:39 AM,5/21/2022 10:06:42 AM,3582,39.1499,-94.4914,8.1217772909031,False,2,100,39.1499,-94.4914,8.29767848505519,8.76260094867931,7.5980907345903,7.55883507824649,0,0,0,,9791
36,False,'01:05:42,1.38610968338755,0.681875090105914,16.4987574223973,13973.0593544191,8.2247085296771,-99.1554230341948,OUT,RiverFrontPark_OUT,5/21/2022 9:41:43 AM,Labenite,5/21/2022 10:59:32 AM,5/21/2022 10:12:42 AM,3942,39.1417,-94.4803,8.36342262549225,False,2,110,39.1417,-94.4803,8.33735372919259,8.76260094867931,8.42923022819853,8.38827179428928,0,0,0,,9791
38,False,'01:11:42,1.46534702578107,0.863996495673786,18.1211468456778,15307.0127911528,8.23033550825194,-23.0358751217246,OUT,RiverFrontPark_OUT,5/21/2022 9:41:43 AM,Labenite,5/21/2022 10:59:28 AM,5/21/2022 10:18:42 AM,4302,39.1316,-94.4723,8.26049735927496,False,2,121,39.1316,-94.4723,8.4255115302424,8.76260094867931,9.25811046557086,9.20957594485653,0,0,0,,9791
40,False,'01:17:42,1.5426693227667,0.947096070055289,19.70432559731,16608.7266130004,8.21814618415796,91.3512860725807,OUT,RiverFrontPark_OUT,5/21/2022 9:41:43 AM,Labenite,5/21/2022 10:59:37 AM,5/21/2022 10:24:42 AM,4662,39.1266,-94.4588,7.99270140868849,False,2,132,39.1266,-94.4588,7.93045752239416,8.76260094867931,10.0669579350041,10.0206243741495,0,0,0,,9791
42,False,'01:24:42,1.62671686548728,0.692263112356518,21.4252041659697,18023.6593337917,8.15134494809931,42.5788569152763,OUT,RiverFrontPark_OUT,5/21/2022 9:41:43 AM,Labenite,5/21/2022 11:00:26 AM,5/21/2022 10:31:42 AM,5082,39.1286,-94.4428,7.36377311851848,False,2,141,39.1286,-94.4428,7.39676970665176,8.76260094867931,10.9461563666578,10.8909292419981,0,0,0,,9791
44,False,'01:30:42,1.69169360268847,0.541084804248865,22.7556068272671,19117.5367819625,8.03722714376766,87.7021087733761,OUT,RiverFrontPark_OUT,5/21/2022 9:41:43 AM,Labenite,5/21/2022 11:01:46 AM,5/21/2022 10:37:42 AM,5442,39.1343,-94.4325,6.55641030602611,False,2,151,39.1343,-94.4325,6.51292647082765,8.76260094867931,11.6258603007892,11.5745180694731,0,0,0,,9791
46,False,'01:36:42,1.75429866803137,0.988756986141369,24.0374493624656,20171.4873505764,7.912196612344,89.3966636386092,OUT,RiverFrontPark_OUT,5/21/2022 9:41:43 AM,Labenite,5/21/2022 11:03:11 AM,5/21/2022 10:43:42 AM,5802,39.1412,-94.4241,6.47294697503441,False,2,157,39.1412,-94.4241,6.44170827834132,8.76260094867931,12.2807548221681,12.2312684308815,0,0,0,,9791
48,False,'01:42:43,1.81634066251427,0.570756268205777,25.3077629874276,21215.9586725857,7.79102853257561,90.3007564574748,OUT,RiverFrontPark_OUT,5/21/2022 9:41:43 AM,Labenite,5/21/2022 11:04:30 AM,5/21/2022 10:49:43 AM,6163,39.1493,-94.4179,6.46643412358238,False,2,164,39.1493,-94.4179,6.44749396759136,8.76260094867931,12.9297592127827,12.883211989779,0,0,0,,9791
50,False,'01:48:43,1.88292218760803,0.475691651815234,26.6710237788044,22336.8525786519,7.72203464004782,-84.3734673622636,OUT,RiverFrontPark_OUT,5/21/2022 9:41:43 AM,Labenite,5/21/2022 11:05:13 AM,5/21/2022 10:55:43 AM,6523,39.1586,-94.4128,7.15752333259183,False,2,171,39.1586,-94.4128,7.12763722783654,8.76260094867931,13.6262503955666,13.5825972561877,0,0,0,,9791
52,False,'01:54:43,1.9577792389181,0.230224770863795,28.2037264747159,23597.064214258,7.73121187198921,-30.2609468017302,OUT,RiverFrontPark_OUT,5/21/2022 9:41:43 AM,Labenite,5/21/2022 11:05:08 AM,5/21/2022 11:01:43 AM,6883,39.1662,-94.402,7.89467636828982,False,2,179,39.1662,-94.402,7.86970876914337,8.76260094867931,14.4093096020545,14.3686042366167,0,0,0,,9791
54,True,'02:00:43,2.03826411473611,0.7273912637119,29.6738165233816,24805.7947721536,7.71295680722014,-12.6761343211423,OUT,Labenite_OUT,5/21/2022 11:05:19 AM,Missouri City,5/21/2022 12:08:12 PM,5/21/2022 11:07:43 AM,7243,39.1698,-94.3889,7.63454947334936,False,3,189,39.1698,-94.3889,7.64179442822539,8.76260094867931,15.1603799499078,15.1180056249209,0,0,0,,9791
56,False,'02:06:43,2.13431701475036,0.546825748758529,31.1940739968514,26055.7737552233,7.71756708461594,91.8308992195002,OUT,Labenite_OUT,5/21/2022 11:05:19 AM,Missouri City,5/21/2022 12:08:08 PM,5/21/2022 11:13:43 AM,7603,39.1689,-94.3746,7.84371615613388,False,3,197,39.1689,-94.3746,7.80873045364391,8.76260094867931,15.9370808808894,15.8963270795943,0,0,0,,9791
58,False,'02:12:43,2.23173453416923,0.365404822016323,32.7359297026287,27323.5111357533,7.7310013538478,41.8374770500991,OUT,Labenite_OUT,5/21/2022 11:05:19 AM,Missouri City,5/21/2022 12:07:55 PM,5/21/2022 11:19:43 AM,7963,39.1676,-94.3602,7.85063557704754,False,3,205,39.1676,-94.3602,7.89467229223059,8.76260094867931,16.7248163684732,16.679040210007,0,0,0,,9791
60,False,'02:18:43,2.31681248693309,0.165593965892739,34.0824834610014,28430.6682633534,7.65975620165749,80.3715848046343,OUT,Labenite_OUT,5/21/2022 11:05:19 AM,Missouri City,5/21/2022 12:08:59 PM,5/21/2022 11:25:43 AM,8323,39.1718,-94.3486,7.01201041178048,False,3,212,39.1718,-94.3486,6.97329454098216,8.76260094867931,17.4127719128442,17.3693541582929,0,0,0,,9791
62,False,'02:24:43,2.39847535986395,0.76444270379382,35.374985747343,29493.3834426507,7.57066775086134,75.7873458965971,OUT,Labenite_OUT,5/21/2022 11:05:19 AM,Missouri City,5/21/2022 12:10:15 PM,5/21/2022 11:31:43 AM,8683,39.1779,-94.3391,6.37680253288998,False,3,218,39.1779,-94.3391,6.3397543841124,8.76260094867931,18.0731125108128,18.0333875212983,0,0,0,,9791
64,False,'02:30:43,2.47615700660198,0.99225828205881,36.6044759968556,30504.2891600042,7.46205711212887,211.209516813448,OUT,Labenite_OUT,5/21/2022 11:05:19 AM,Missouri City,5/21/2022 12:11:46 PM,5/21/2022 11:37:43 AM,9043,39.185,-94.3317,6.04755951344603,False,3,224,39.185,-94.3317,6.02213028565567,8.76260094867931,18.7012602016443,18.6664380855771,0,0,0,,9791
66,False,'02:36:43,2.55153332500451,0.152255804612163,37.7974791373864,31485.1946174174,7.34792413691923,233.975651355985,OUT,Labenite_OUT,5/21/2022 11:05:19 AM,Missouri City,5/21/2022 12:13:19 PM,5/21/2022 11:43:43 AM,9403,39.1924,-94.3255,6.39256940444533,False,3,231,39.1924,-94.3255,6.38208326379284,8.76260094867931,19.3107665951892,19.2767933635478,0,0,0,,9791
68,False,'02:42:43,2.62171553506041,0.636402702354672,38.9082735988371,32398.50683956,7.20710837050709,213.208328633666,OUT,Labenite_OUT,5/21/2022 11:05:19 AM,Missouri City,5/21/2022 12:15:10 PM,5/21/2022 11:49:43 AM,9763,39.1997,-94.3204,5.50710512503955,False,3,236,39.1997,-94.3204,5.40292753669923,8.76260094867931,19.8782724995469,19.8517744299997,0,0,0,,9791
70,False,'02:48:43,2.69873199237472,0.904392697173988,40.127235699876,33400.7561519607,7.12567788778479,-160.376793229755,OUT,Labenite_OUT,5/21/2022 11:05:19 AM,Missouri City,5/21/2022 12:16:13 PM,5/21/2022 11:55:43 AM,10123,39.2086,-94.3181,6.6868088107819,False,3,242,39.2086,-94.3181,6.62021847312977,8.76260094867931,20.5010413497124,20.4813293483743,0,0,0,,9791
72,False,'02:54:43,2.76719279367721,0.48214364458436,41.2107849191542,34291.6669186271,6.99108398141813,-546.936147847894,OUT,Labenite_OUT,5/21/2022 11:05:19 AM,Missouri City,5/21/2022 12:17:52 PM,5/21/2022 12:01:43 PM,10483,39.2166,-94.3174,4.84606347461409,False,3,248,39.2166,-94.3174,4.85856774575218,8.76260094867931,21.054627634973,21.0359658710521,0,0,0,,9791
74,False,'03:00:43,2.83464070956872,0.855569112081755,42.2783029033985,35169.3965582708,6.86309136403909,-83.7138866172386,OUT,Labenite_OUT,5/21/2022 11:05:19 AM,Missouri City,5/21/2022 12:19:24 PM,5/21/2022 12:07:43 PM,10843,39.224,-94.313,6.09829781199594,False,3,253,39.224,-94.313,5.96451340624559,8.76260094867931,21.6000235476205,21.5995322155676,0,0,0,,9791
76,False,'03:06:43,2.91131496082968,0.0290723649972724,43.4918488086745,36167.1925915461,6.80655466248952,-78.4119908565356,OUT,Labenite_OUT,5/21/2022 11:05:19 AM,Missouri City,5/21/2022 12:20:02 PM,5/21/2022 12:13:43 PM,11203,39.2313,-94.3062,5.73502404497975,False,3,260,39.2313,-94.3062,5.69937800479284,8.76260094867931,22.2200252584264,22.2232871580859,0,0,0,,9791
78,True,'03:12:43,2.99843420906991,0.012687290164759,44.870710750382,37300.9140024038,6.82680462188188,-92.5465685148652,IN,Missouri City_IN,5/21/2022 12:20:00 PM,Ft Osage,5/21/2022 1:24:47 PM,5/21/2022 12:19:43 PM,11563,39.2369,-94.2952,7.24909713208217,True,4,267,39.2369,-94.2952,7.19809727938612,8.76260094867931,22.924487083156,22.9325952728645,0,0,0,,9791
80,False,'03:18:43,3.09664973742123,0.373225224360358,46.2938494237102,38471.0404202624,6.86442738914593,-106.98415067917,OUT,Missouri City_OUT,5/21/2022 12:20:00 PM,Ft Osage,5/21/2022 1:24:04 PM,5/21/2022 12:25:43 PM,11923,39.238,-94.2818,7.52558998085503,False,4,274,39.238,-94.2818,7.47731968855309,8.76260094867931,23.6515699304892,23.6623476037752,0,0,0,,9791
82,False,'03:24:12,3.18375869305497,0.855291115669809,47.5541670650951,39507.2928914492,6.8789933715008,-520.555776360561,OUT,Missouri City_OUT,5/21/2022 12:20:00 PM,Ft Osage,5/21/2022 1:23:49 PM,5/21/2022 12:31:12 PM,12252,39.2364,-94.2702,7.13919771413886,False,4,280,39.2364,-94.2702,7.39580904309851,8.76260094867931,24.2954673639694,24.2950303475833,0,0,0,,9791
84,False,'03:30:13,3.22198772838258,0.640164444909165,48.1072758388829,39962.0673981702,6.79595697461859,-664.764200272025,OUT,Missouri City_OUT,5/21/2022 12:20:00 PM,Ft Osage,5/21/2022 1:27:59 PM,5/21/2022 12:37:13 PM,12613,39.2368,-94.2653,0.70134916660006,False,4,283,39.2368,-94.2653,0.671980190246147,8.76260094867931,24.5780511414099,24.5608165898266,0,0,0,,9791
86,False,'03:48:21,3.2288617779829,0.150260228418123,48.2067315827386,40043.841434302,6.79595697461859,-760.882836128905,OUT,Missouri City_OUT,5/21/2022 12:20:00 PM,Ft Osage,5/21/2022 1:45:40 PM,5/21/2022 12:55:21 PM,13701,39.2371,-94.2644,0.255455254376044,False,4,284,39.2371,-94.2644,0.214347738946535,8.76260094867931,24.6288631717351,24.620174945457,0,0,0,,9791
88,False,'03:55:03,3.3272923462588,0.381790763337769,49.630853600356,41214.7763728988,6.77147336064816,66.8629750916463,OUT,Missouri City_OUT,5/21/2022 12:20:00 PM,Ft Osage,5/21/2022 1:46:06 PM,5/21/2022 1:02:03 PM,14103,39.2357,-94.2509,7.43387872095832,False,4,291,39.2357,-94.2509,7.44522165348318,8.76260094867931,25.3564484105633,25.3511808456573,0,0,0,,9791
90,False,'04:01:03,3.43587896175533,0.402358590884103,51.2019162555437,42506.5281546468,6.87622150412461,-75.3178532354286,OUT,Missouri City_OUT,5/21/2022 12:20:00 PM,Ft Osage,5/21/2022 1:44:26 PM,5/21/2022 1:08:03 PM,14463,39.2296,-94.2385,7.71911191616522,False,4,299,39.2296,-94.2385,7.73996243400695,8.76260094867931,26.1591057552628,26.143001748265,0,0,0,,9791
92,False,'04:07:04,3.46088571587599,0.310304291164272,51.5637212288986,42804.0097461245,6.74234205466617,-598.691759650021,OUT,Missouri City_OUT,5/21/2022 12:20:00 PM,Ft Osage,5/21/2022 1:49:31 PM,5/21/2022 1:14:04 PM,14824,39.2282,-94.2349,0.674793196690596,False,4,301,39.2282,-94.2349,0.0551324091726339,8.76260094867931,26.343952246428,26.3804008956977,0,0,0,,9791
94,False,'04:36:50,3.46237747342201,0.413970980714657,51.5853044098498,42821.7557681291,6.74234205466617,-559.938423193163,OUT,Missouri City_OUT,5/21/2022 12:20:00 PM,Ft Osage,5/21/2022 2:19:11 PM,5/21/2022 1:43:50 PM,16610,39.228,-94.2349,0.0268628206587475,False,4,301,39.228,-94.2349,0.0137130729429159,8.76260094867931,26.3549791132785,26.4005946650284,0,0,0,,9791
96,False,'04:51:50,3.46200067768584,0.387786319065279,51.5798528198263,42817.2733873004,6.74234205466617,-603.347767884323,OUT,Missouri City_OUT,5/21/2022 12:20:00 PM,Ft Osage,5/21/2022 2:34:13 PM,5/21/2022 1:58:50 PM,17510,39.2281,-94.2348,0.0805883480619242,False,4,301,39.2281,-94.2348,0.0410682869433327,8.76260094867931,26.3521938909589,26.4128699399528,0,0,0,,9791
98,False,'04:57:51,3.44339982902578,0.962909456611592,51.3107303450997,42595.9967659712,6.74234205466617,-1340.84424797868,OUT,Missouri City_OUT,5/21/2022 12:20:00 PM,Ft Osage,5/21/2022 2:41:27 PM,5/21/2022 2:04:51 PM,17871,39.2311,-94.2343,3.04462654565608,False,4,299,39.2311,-94.2343,1.88957063795584,8.76260094867931,26.2146989729492,26.6296963793093,0,0,0,,9791
100,False,'05:03:52,3.38644713762429,0.745954726704902,50.4867222832943,41918.4847148145,6.7590909421827,-2240.42244590641,OUT,Missouri City_OUT,5/21/2022 12:20:00 PM,Ft Osage,5/21/2022 2:51:07 PM,5/21/2022 2:10:52 PM,18232,39.2381,-94.2389,2.14663091120744,False,4,295,39.2381,-94.2389,1.05969919138542,8.76260094867931,25.7937125019669,27.1839985963518,0,0,0,,9791
102,False,'05:09:07,3.43477191928165,0.319847678950364,51.1858992438692,42493.358722288,6.73697229604179,-4512.95472178601,OUT,Missouri City_OUT,5/21/2022 12:20:00 PM,Ft Osage,5/21/2022 2:51:28 PM,5/21/2022 2:16:07 PM,18547,39.2375,-94.2217,8.53687428004959,False,4,299,39.2375,-94.2266,6.30370705104633,8.76260094867931,26.150922649377,27.8442692240851,0,0,0,off race course(1),9791
104,False,'05:16:00,3.43477191928165,0.319847678950364,51.1858992438692,42493.358722288,6.73697229604179,-4512.95472178601,OUT,Missouri City_OUT,5/21/2022 12:20:00 PM,Ft Osage,5/21/2022 2:51:28 PM,5/21/2022 2:23:00 PM,18960,39.3149,-94.2353,50.2918501152739,False,4,299,39.2375,-94.2266,6.30370705104633,8.76260094867931,26.150922649377,27.8442692240851,0,0,0,off race course(1),9791
106,False,'05:22:00,3.43477191928165,0.319847678950364,51.1858992438692,42493.358722288,6.73697229604179,-4512.95472178601,OUT,Missouri City_OUT,5/21/2022 12:20:00 PM,Ft Osage,5/21/2022 2:51:28 PM,5/21/2022 2:29:00 PM,19320,39.3346,-94.2491,18.5684017325939,False,4,299,39.2375,-94.2266,6.30370705104633,8.76260094867931,26.150922649377,27.8442692240851,0,0,0,off race course(1),9791
108,False,'05:27:59,3.43477191928165,0.319847678950364,51.1858992438692,42493.358722288,6.73697229604179,-4512.95472178601,OUT,Missouri City_OUT,5/21/2022 12:20:00 PM,Ft Osage,5/21/2022 2:51:28 PM,5/21/2022 2:34:59 PM,19679,39.3376,-94.2514,0.296409215080234,False,4,299,39.2375,-94.2266,6.30370705104633,8.76260094867931,26.150922649377,27.8442692240851,0,0,0,off race course(1),9791
110,False,'05:33:00,3.43477191928165,0.319847678950364,51.1858992438692,42493.358722288,6.73697229604179,-4512.95472178601,OUT,Missouri City_OUT,5/21/2022 12:20:00 PM,Ft Osage,5/21/2022 2:51:28 PM,5/21/2022 2:40:00 PM,19980,39.3465,-94.2545,10.8061338653495,False,4,299,39.2375,-94.2266,6.30370705104633,8.76260094867931,26.150922649377,27.8442692240851,0,0,0,off race course(1),9791
112,False,'05:39:02,3.43477191928165,0.319847678950364,51.1858992438692,42493.358722288,6.73697229604179,-4512.95472178601,OUT,Missouri City_OUT,5/21/2022 12:20:00 PM,Ft Osage,5/21/2022 2:51:28 PM,5/21/2022 2:46:02 PM,20342,39.3465,-94.2547,0.2747861133456,False,4,299,39.2375,-94.2266,6.30370705104633,8.76260094867931,26.150922649377,27.8442692240851,0,0,0,off race course(1),9791
